| time (UTC) | temp F | wind direction | speed knots | gust knots | rain 1hr in | rain 24hr in | rain mn in | humidity % | barometer mb |
| 20260506203926 | 63 | 19 | 3.5 | 0.0 | 0.00 | 0.00 | 0.00 | 81 | 1012.2 |
| 20260506202919 | 63 | 19 | 4.3 | 0.0 | 0.00 | 0.00 | 0.00 | 80 | 1012.1 |
| 20260506195922 | 64 | 19 | 4.3 | 0.0 | 0.00 | 0.00 | 0.00 | 79 | 1011.9 |
| 20260506194935 | 64 | 9 | 5.2 | 0.0 | 0.00 | 0.00 | 0.00 | 78 | 1011.7 |
| 20260506193927 | 64 | 11 | 3.5 | 0.0 | 0.00 | 0.00 | 0.00 | 77 | 1011.8 |
| 20260506191917 | 65 | 13 | 3.5 | 0.0 | 0.00 | 0.00 | 0.00 | 75 | 1011.5 |
| 20260506184937 | 66 | 34 | 3.5 | 0.0 | 0.00 | 0.00 | 0.00 | 73 | 1011.3 |
| 20260506183932 | 66 | 72 | 4.3 | 0.0 | 0.00 | 0.00 | 0.00 | 73 | 1011.2 |
| 20260506181920 | 66 | 80 | 5.2 | 0.0 | 0.00 | 0.00 | 0.00 | 72 | 1011.1 |
| 20260506180932 | 67 | 83 | 5.2 | 0.0 | 0.00 | 0.00 | 0.00 | 70 | 1011.0 |
| 20260506175926 | 67 | 97 | 5.2 | 0.0 | 0.00 | 0.00 | 0.00 | 68 | 1011.0 |
| 20260506174918 | 67 | 49 | 4.3 | 0.0 | 0.00 | 0.00 | 0.00 | 66 | 1011.0 |
| 20260506172932 | 67 | 46 | 7.0 | 0.0 | 0.00 | 0.00 | 0.00 | 64 | 1011.1 |
| 20260506171922 | 68 | 96 | 5.2 | 0.0 | 0.00 | 0.00 | 0.00 | 61 | 1011.0 |
| 20260506170934 | 68 | 79 | 6.1 | 0.0 | 0.00 | 0.00 | 0.00 | 61 | 1010.9 |
| 20260506164924 | 68 | 107 | 6.1 | 0.0 | 0.00 | 0.00 | 0.00 | 66 | 1010.8 |
| 20260506163918 | 68 | 90 | 7.8 | 0.0 | 0.00 | 0.00 | 0.00 | 68 | 1010.9 |
| 20260506162929 | 68 | 74 | 7.0 | 0.0 | 0.00 | 0.00 | 0.00 | 67 | 1010.9 |
| 20260506162002 | 68 | 87 | 8.7 | 0.0 | 0.00 | 0.00 | 0.00 | 67 | 1010.6 |
| 20260506160933 | 68 | 83 | 7.8 | 0.0 | 0.00 | 0.00 | 0.00 | 66 | 1010.7 |
| 20260506155923 | 68 | 76 | 8.7 | 0.0 | 0.00 | 0.00 | 0.00 | 66 | 1010.7 |
| 20260506152930 | 68 | 74 | 8.7 | 0.0 | 0.00 | 0.00 | 0.00 | 63 | 1010.6 |
| 20260506150936 | 69 | 106 | 7.8 | 0.0 | 0.00 | 0.00 | 0.00 | 63 | 1010.5 |
| 20260506145929 | 69 | 101 | 7.8 | 0.0 | 0.00 | 0.00 | 0.00 | 63 | 1010.5 |
| 20260506143919 | 70 | 103 | 6.1 | 0.0 | 0.00 | 0.00 | 0.00 | 61 | 1010.7 |
| 20260506141923 | 69 | 94 | 7.8 | 0.0 | 0.00 | 0.00 | 0.00 | 63 | 1011.0 |
| 20260506135930 | 69 | 78 | 5.2 | 0.0 | 0.00 | 0.00 | 0.00 | 63 | 1011.1 |
| 20260506134923 | 70 | 57 | 6.1 | 0.0 | 0.00 | 0.00 | 0.00 | 63 | 1011.2 |
| 20260506133934 | 70 | 31 | 6.1 | 0.0 | 0.00 | 0.00 | 0.00 | 64 | 1011.2 |
| 20260506132931 | 69 | 77 | 7.0 | 0.0 | 0.00 | 0.00 | 0.00 | 65 | 1011.3 |
| 20260506130918 | 69 | 49 | 6.1 | 0.0 | 0.00 | 0.00 | 0.00 | 64 | 1011.4 |
| 20260506125930 | 69 | 44 | 7.8 | 0.0 | 0.00 | 0.00 | 0.00 | 63 | 1011.4 |
| 20260506124925 | 69 | 92 | 7.8 | 0.0 | 0.00 | 0.00 | 0.00 | 63 | 1011.5 |
| 20260506123918 | 69 | 57 | 8.7 | 0.0 | 0.00 | 0.00 | 0.00 | 62 | 1011.4 |
| 20260506122930 | 70 | 99 | 7.0 | 0.0 | 0.00 | 0.00 | 0.00 | 62 | 1011.4 |
| 20260506121925 | 70 | 85 | 7.0 | 0.0 | 0.00 | 0.00 | 0.00 | 62 | 1011.6 |
| 20260506120918 | 70 | 71 | 6.1 | 0.0 | 0.00 | 0.00 | 0.00 | 61 | 1011.6 |
| 20260506115928 | 69 | 67 | 7.0 | 0.0 | 0.00 | 0.00 | 0.00 | 62 | 1011.6 |
| 20260506114919 | 69 | 94 | 6.1 | 0.0 | 0.00 | 0.00 | 0.00 | 62 | 1011.6 |
| 20260506113936 | 70 | 71 | 5.2 | 0.0 | 0.00 | 0.00 | 0.00 | 61 | 1011.6 |
| 20260506111921 | 69 | 111 | 7.8 | 0.0 | 0.00 | 0.00 | 0.00 | 64 | 1011.5 |
| 20260506110917 | 69 | 89 | 5.2 | 0.0 | 0.00 | 0.00 | 0.00 | 64 | 1011.6 |
| 20260506105927 | 69 | 42 | 6.1 | 0.0 | 0.00 | 0.00 | 0.00 | 64 | 1011.7 |
| 20260506104917 | 68 | 10 | 6.1 | 0.0 | 0.00 | 0.00 | 0.00 | 65 | 1011.6 |
| 20260506103928 | 68 | 30 | 8.7 | 0.0 | 0.00 | 0.00 | 0.00 | 67 | 1011.8 |
| 20260506100933 | 68 | 32 | 6.1 | 0.0 | 0.00 | 0.00 | 0.00 | 68 | 1011.8 |
| 20260506094920 | 68 | 47 | 5.2 | 0.0 | 0.00 | 0.00 | 0.00 | 68 | 1011.9 |
| 20260506093933 | 68 | 9 | 7.0 | 0.0 | 0.00 | 0.00 | 0.00 | 67 | 1011.8 |
| 20260506092924 | 68 | 86 | 7.0 | 0.0 | 0.00 | 0.00 | 0.00 | 67 | 1011.7 |
| 20260506091935 | 68 | 46 | 6.1 | 0.0 | 0.00 | 0.00 | 0.00 | 68 | 1011.7 |
| 20260506090931 | 68 | 24 | 7.8 | 0.0 | 0.00 | 0.00 | 0.00 | 68 | 1011.7 |
| 20260506085922 | 68 | 37 | 7.8 | 0.0 | 0.00 | 0.00 | 0.00 | 69 | 1011.6 |
| 20260506083929 | 67 | 22 | 8.7 | 0.0 | 0.00 | 0.00 | 0.00 | 70 | 1011.6 |
| 20260506081921 | 67 | 20 | 8.7 | 0.0 | 0.00 | 0.00 | 0.00 | 72 | 1011.5 |
| 20260506080931 | 67 | 22 | 8.7 | 0.0 | 0.00 | 0.00 | 0.00 | 74 | 1011.5 |
| 20260506072924 | 65 | 30 | 7.0 | 0.0 | 0.00 | 0.00 | 0.00 | 79 | 1011.7 |
| 20260506071936 | 65 | 15 | 7.8 | 0.0 | 0.00 | 0.00 | 0.00 | 81 | 1011.8 |
| 20260506070931 | 64 | 17 | 7.8 | 0.0 | 0.00 | 0.00 | 0.00 | 83 | 1011.7 |
| 20260506061920 | 62 | 17 | 0.9 | 0.0 | 0.00 | 0.00 | 0.00 | 89 | 1011.6 |
| 20260506060932 | 61 | 17 | 1.7 | 0.0 | 0.00 | 0.00 | 0.00 | 89 | 1011.6 |
| 20260506050933 | 59 | 17 | 0.9 | 0.0 | 0.00 | 0.00 | 0.00 | 88 | 1011.2 |
| 20260506044921 | 61 | 17 | 0.0 | 0.0 | 0.00 | 0.00 | 0.00 | 88 | 1011.1 |
| 20260506043933 | 62 | 17 | 0.0 | 0.0 | 0.00 | 0.00 | 0.00 | 89 | 1011.0 |
| 20260506042926 | 62 | 17 | 0.9 | 0.0 | 0.00 | 0.00 | 0.00 | 88 | 1010.9 |
| 20260506040919 | 62 | 17 | 1.7 | 0.0 | 0.00 | 0.00 | 0.00 | 88 | 1011.1 |
| 20260506035927 | 62 | 17 | 1.7 | 0.0 | 0.00 | 0.00 | 0.00 | 88 | 1011.1 |
| 20260506033935 | 62 | 17 | 1.7 | 0.0 | 0.00 | 0.00 | 0.00 | 87 | 1011.0 |
| 20260506032930 | 62 | 17 | 1.7 | 0.0 | 0.00 | 0.00 | 0.00 | 87 | 1011.0 |
| 20260506031922 | 61 | 17 | 1.7 | 0.0 | 0.00 | 0.00 | 0.00 | 87 | 1011.0 |
| 20260506030935 | 61 | 17 | 1.7 | 0.0 | 0.00 | 0.00 | 0.00 | 87 | 1011.0 |
| 20260506025932 | 61 | 17 | 2.6 | 0.0 | 0.00 | 0.00 | 0.00 | 87 | 1011.0 |
| 20260506024927 | 61 | 17 | 1.7 | 0.0 | 0.00 | 0.00 | 0.00 | 87 | 1011.0 |
| 20260506021930 | 61 | 17 | 2.6 | 0.0 | 0.00 | 0.00 | 0.00 | 87 | 1010.7 |
| 20260506020925 | 61 | 17 | 1.7 | 0.0 | 0.00 | 0.00 | 0.00 | 87 | 1010.7 |
| 20260506015935 | 62 | 17 | 2.6 | 0.0 | 0.00 | 0.00 | 0.00 | 87 | 1010.7 |
| 20260506014928 | 62 | 17 | 2.6 | 0.0 | 0.00 | 0.00 | 0.00 | 87 | 1010.7 |
| 20260506013923 | 62 | 28 | 4.3 | 0.0 | 0.00 | 0.00 | 0.00 | 87 | 1010.7 |
| 20260506012936 | 62 | 28 | 3.5 | 0.0 | 0.00 | 0.00 | 0.00 | 86 | 1010.8 |
| 20260506011928 | 62 | 25 | 3.5 | 0.0 | 0.00 | 0.00 | 0.00 | 86 | 1010.9 |
| 20260506005919 | 63 | 21 | 2.6 | 0.0 | 0.00 | 0.00 | 0.00 | 85 | 1010.9 |
| 20260506004931 | 63 | 28 | 1.7 | 0.0 | 0.00 | 0.00 | 0.00 | 85 | 1011.0 |
| 20260506003924 | 62 | 28 | 2.6 | 0.0 | 0.00 | 0.00 | 0.00 | 84 | 1011.2 |
| 20260506001936 | 62 | 13 | 4.3 | 0.0 | 0.00 | 0.00 | 0.00 | 83 | 1011.2 |
| 20260505235920 | 62 | 14 | 2.6 | 0.0 | 0.00 | 0.00 | 0.00 | 82 | 1011.4 |
| 20260505234932 | 63 | 351 | 1.7 | 0.0 | 0.00 | 0.00 | 0.00 | 82 | 1011.6 |
| 20260505233928 | 63 | 350 | 1.7 | 0.0 | 0.00 | 0.00 | 0.00 | 81 | 1011.7 |
| 20260505232920 | 63 | 346 | 1.7 | 0.0 | 0.00 | 0.00 | 0.00 | 82 | 1011.6 |
| 20260505230924 | 63 | 24 | 1.7 | 0.0 | 0.00 | 0.00 | 0.00 | 82 | 1011.7 |
| 20260505225936 | 63 | 5 | 1.7 | 0.0 | 0.00 | 0.00 | 0.00 | 82 | 1011.6 |
| 20260505224927 | 63 | 5 | 3.5 | 0.0 | 0.00 | 0.00 | 0.00 | 83 | 1011.7 |
| 20260505223918 | 63 | 346 | 4.3 | 0.0 | 0.00 | 0.00 | 0.00 | 85 | 1011.7 |
| 20260505222933 | 63 | 5 | 5.2 | 0.0 | 0.00 | 0.00 | 0.00 | 86 | 1011.6 |
| 20260505221925 | 64 | 10 | 1.7 | 0.0 | 0.00 | 0.00 | 0.00 | 88 | 1011.4 |
| 20260505220919 | 64 | 255 | 2.6 | 0.0 | 0.00 | 0.00 | 0.00 | 87 | 1011.1 |
| 20260505215931 | 64 | 237 | 3.5 | 0.0 | 0.00 | 0.00 | 0.00 | 87 | 1011.1 |
| 20260505214927 | 64 | 228 | 4.3 | 0.0 | 0.00 | 0.00 | 0.00 | 87 | 1011.3 |
| 20260505212934 | 65 | 242 | 4.3 | 0.0 | 0.00 | 0.00 | 0.00 | 87 | 1011.4 |
| 20260505211926 | 65 | 233 | 5.2 | 0.0 | 0.00 | 0.00 | 0.00 | 86 | 1011.4 |
| 20260505210922 | 65 | 236 | 5.2 | 0.0 | 0.00 | 0.00 | 0.00 | 86 | 1011.5 |
| 20260505204927 | 65 | 228 | 4.3 | 0.0 | 0.00 | 0.00 | 0.00 | 84 | 1011.6 |